STARLINK-2538, 48300

Orbit data source: Space-Track

STARLINK-2538, 48300 is a payload satellite owned by SpaceX/Seattle (US) in LEO that was launched on Thu, 29 Apr 2021 UTC via an FALCON 9 launch vehicle from the Air Force Eastern Test Range (AFETR). Payloads include a variety of satellites, spacecraft, and rockets equipped with specific instruments for various scientific and technological missions. These include communications satellites like Starlink; space stations such as the ISS; scientific satellites like the Hubble; Earth observation satellites from companies like Planet Labs, Umbra, and HawkEye 360; GPS; miniature CubeSats for education and research; and military/defense satellites.

Loading next visibility...
STARLINK-2538 details
Identifier
48300, 2021-036AA
Orbit
LEO
Last TLE update1 day ago
Origin
Flag of USSpaceX/Seattle (US)
ManufacturerSpaceX/Seattle
MissionOperational Commercial Communications
Bus & MotorSTARLINK, Unknown motor
Mass260 kg wet, ~248 kg dry
Launch date (UTC)
2021-04-29 (4 years ago)
Launch vehicle
FALCON 9
Launch site
Air Force Eastern Test Range (AFETR)
Object type
Payload
Rocket body
Debris
Shape & HBRBox + 1 Pan, 8.86 m
Radar Cross Section13.562 m², Large (>1 m²)

Expand to show TLE details & history

TLE from 1 day ago
0 STARLINK-2538
1 48300U 21036AA  25035.38347328  .00011118  00000-0  76435-3 0  9990
2 48300  53.0536  79.6819 0001425  82.2828 277.8323 15.06388235208149
Epoch: 2025-02-04T09:12Z
Definitive object data (Epoch: 2025-02-04T09:12:12.091Z)
Latitude0.00001°
Longitude166.84198°
Altitude547.992 km
Speed7.589 km/s
True Right ascension05h 18m 43s
True Declination0° 00' 00"
Sunlit
Object was in full shadow at TLE epoch
Visualization TLE readout
Latitude-48.42179°
Longitude39.3394°
Altitude564.733 km
Speed7.578 km/s
Apparent Right ascension23h 24m 34s
Apparent Declination-50° 48' 30"
Sunlit
Object is in daylight
Visualization observer readout
Local Sidereal Time13:49:55
Azimuth125.575° SE
Elevation-62.591°
Doppler factor1
Orbital elements
Apogee altitude548.505 km
Perigee altitude546.532 km
Semi-major axis6,925.655 km
Eccentricity0.0001425
Inclination53.0536°
RAAN79.6819°
Arg. of periapsis82.2828°
True anomaly277.81612°
Mean anomaly277.8323°
Eccentric anomaly277.82421°
Mean motion3.76575 °/min
BSTAR0.00076435
Orbital period95.6 mins
Loading maneuver chart data...
Loading historical data...
Loading historical data...
Loading historical data...
Loading historical data...
Loading historical data...
Loading historical data...
Loading historical data...

STARLINK-2538 Visibility forecast

Observer location: undefined°, undefined

Span
Click to sort rows by Start time (UTC) header in descending order
Start Az.
Max El. time (UTC)
Max El. Az.
Max El.
End time (UTC)
End Az.
7 mins2025-02-05 12:47:52.300Z296.56° NW2025-02-05 12:50:52.300Z238.756° WSW36.054°2025-02-05 12:54:52.300Z152.188° SSE
5 mins2025-02-06 04:21:52.300Z179.963° S2025-02-06 04:23:52.300Z134.802° SE27.477°2025-02-06 04:26:52.300Z74.203° E
6 mins2025-02-06 06:00:52.300Z267.406° W2025-02-06 06:03:52.300Z345.356° N31.36°2025-02-06 06:06:52.300Z36.115° NE
6 mins2025-02-06 11:02:52.300Z334.218° NNW2025-02-06 11:04:52.300Z17.662° NNE30.126°2025-02-06 11:08:52.300Z98.154° ESE
|